Aduy, Russia

11:40 AM +05 on May 23, 2017 (GMT +0500)
Aduy

Weather History for 28440 - August, 2013

Change the Weather History Date:

Saturday, August 31, 2013

  Actual Average Record
Temperature  
Mean Temperature 60 °F -  
Max Temperature 66 °F - - ()
Min Temperature 53 °F - - ()
Degree Days  
Heating Degree Days 6    
Growing Degree Days 10 (Base 50)    
Moisture  
Dew Point 53 °F    
Average Humidity 79    
Maximum Humidity 94    
Minimum Humidity 58    
Precipitation  
Precipitation 0.00 in 0.07 in - ()
Sea Level Pressure  
Sea Level Pressure 30.02 in    
Wind  
Wind Speed 7 mph ()    
Max Wind Speed 13 mph    
Max Gust Speed -    
Visibility 6.6 miles    
Events Rain    
T = Trace of Precipitation, MM = Missing Value Source: Averaged Metar Reports

Daily Weather History Graph

Daily Weather History Graph

Search for Another Location

Airport or City:

Trip Planner

Search our weather history database for the weather conditions in past years. The results will help you decide how hot, cold, wet, or windy it might be!

Date:

Astronomy

Aug. 31, 2013 Rise Set
Actual Time 6:57 AM +06 8:56 PM +06
Civil Twilight 6:17 AM +06 9:36 PM +06
Nautical Twilight 5:25 AM +06 10:28 PM +06
Astronomical Twilight 4:23 AM +06 11:28 PM +06
Moon 1:28 AM +06 (8/31) 6:10 PM +06 (8/31)
Length of Visible Light 15h 19m
Length of Day
13h 58m
Waning Crescent, 24% of the Moon is Illuminated
Aug 31
Waning Crescent
Sep 5
New
Sep 12
First Quarter
Sep 19
Full
Sep 27
Last Quarter

Hourly Weather History & Observations

Time (+06) Temp. Dew Point Humidity Pressure Visibility Wind Dir Wind Speed Gust Speed Precip Events Conditions
12:00 AM 58 °F 51 °F 71% 30.04 in 31 mi WNW 6.7 mph - -   Partly Cloudy
12:00 AM 59.0 °F 51.8 °F 77% 30.04 in 6.2 mi West 11.2 mph - N/A   Overcast
12:30 AM 57.2 °F 51.8 °F 82% 30.04 in 6.2 mi West 6.7 mph - N/A   Overcast
1:00 AM 57.2 °F 51.8 °F 82% 30.04 in 6.2 mi West 4.5 mph - N/A   Overcast
1:30 AM 57.2 °F 51.8 °F 82% 30.04 in 6.2 mi WSW 4.5 mph - N/A   Overcast
2:00 AM 57.2 °F 51.8 °F 82% 30.04 in 6.2 mi WSW 6.7 mph - N/A   Mostly Cloudy
2:30 AM 57.2 °F 51.8 °F 82% 30.04 in 6.2 mi SW 6.7 mph - N/A   Overcast
3:00 AM 56 °F 50 °F 75% 30.03 in 6 mi West 6.7 mph - -   Mostly Cloudy
3:00 AM 55.4 °F 51.8 °F 88% 30.04 in 6.2 mi WSW 6.7 mph - N/A   Overcast
3:30 AM 55.4 °F 51.8 °F 88% 30.01 in 6.2 mi WSW 6.7 mph - N/A   Overcast
4:00 AM 55.4 °F 51.8 °F 88% 30.01 in 6.2 mi WSW 6.7 mph - N/A   Overcast
4:30 AM 55.4 °F 51.8 °F 88% 30.01 in 6.2 mi SW 6.7 mph - N/A   Overcast
5:00 AM 55.4 °F 51.8 °F 88% 30.01 in 6.2 mi WSW 6.7 mph - N/A   Overcast
5:30 AM 55.4 °F 51.8 °F 88% 30.01 in 6.2 mi WSW 6.7 mph - N/A   Overcast
6:00 AM 55 °F 50 °F 78% 30.03 in 6 mi West 4.5 mph - -   Overcast
6:00 AM 55.4 °F 51.8 °F 88% 30.01 in 6.2 mi WSW 2.2 mph - N/A   Overcast
6:30 AM 55.4 °F 51.8 °F 88% 30.01 in 6.2 mi WSW 4.5 mph - N/A   Overcast
7:00 AM 55.4 °F 50.0 °F 82% 30.01 in 6.2 mi West 4.5 mph - N/A   Overcast
7:30 AM 55.4 °F 51.8 °F 88% 30.04 in 6.2 mi WSW 6.7 mph - N/A   Overcast
8:00 AM 55.4 °F 51.8 °F 88% 30.04 in 6.2 mi WSW 4.5 mph - N/A   Overcast
8:30 AM 55.4 °F 51.8 °F 88% 30.04 in 6.2 mi WSW 6.7 mph - N/A   Overcast
9:00 AM 56 °F 51 °F 77% 30.03 in 12 mi West 2.2 mph - -  
9:00 AM 57.2 °F 51.8 °F 82% 30.04 in 6.2 mi SW 6.7 mph - N/A   Overcast
9:30 AM 57.2 °F 53.6 °F 88% 30.04 in 6.2 mi WSW 4.5 mph - N/A   Mostly Cloudy
10:00 AM 59.0 °F 53.6 °F 82% 30.01 in 6.2 mi WSW 6.7 mph - N/A   Mostly Cloudy
10:30 AM 59.0 °F 53.6 °F 82% 30.01 in 6.2 mi SW 6.7 mph - N/A   Mostly Cloudy
11:00 AM 60.8 °F 53.6 °F 77% 30.01 in 6.2 mi WSW 8.9 mph - N/A   Mostly Cloudy
11:30 AM 60.8 °F 53.6 °F 77% 30.01 in 6.2 mi WSW 8.9 mph - N/A   Mostly Cloudy
12:00 PM 62 °F 53 °F 63% 30.00 in 12 mi West 6.7 mph - -   Mostly Cloudy
12:00 PM 62.6 °F 55.4 °F 77% 30.01 in 6.2 mi SW 8.9 mph - N/A   Mostly Cloudy
12:30 PM 62.6 °F 53.6 °F 72% 30.01 in 6.2 mi WSW 8.9 mph - N/A   Mostly Cloudy
1:00 PM 64.4 °F 55.4 °F 73% 30.01 in 6.2 mi West 8.9 mph - N/A   Mostly Cloudy
1:30 PM 62.6 °F 53.6 °F 72% 30.01 in 6.2 mi West 11.2 mph - N/A   Mostly Cloudy
2:00 PM 64.4 °F 53.6 °F 68% 30.01 in 6.2 mi West 13.4 mph - N/A   Mostly Cloudy
2:30 PM 64.4 °F 55.4 °F 73% 30.01 in 6.2 mi West 11.2 mph - N/A   Mostly Cloudy
3:00 PM 62 °F 51 °F 59% 30.00 in 12 mi WSW 8.9 mph - -   Overcast
3:00 PM 64.4 °F 53.6 °F 68% 30.01 in 6.2 mi West 11.2 mph - N/A   Mostly Cloudy
3:30 PM 64.4 °F 55.4 °F 73% 30.01 in 6.2 mi West 11.2 mph - N/A   Mostly Cloudy
4:00 PM 66.2 °F 53.6 °F 64% 30.01 in 6.2 mi West 11.2 mph - N/A   Mostly Cloudy
4:30 PM 66.2 °F 53.6 °F 64% 30.01 in 6.2 mi West 11.2 mph - N/A   Mostly Cloudy
5:00 PM 64.4 °F 53.6 °F 68% 30.01 in 6.2 mi West 13.4 mph - N/A   Mostly Cloudy
5:30 PM 64.4 °F 53.6 °F 68% 30.01 in 6.2 mi WSW 13.4 mph - N/A   Mostly Cloudy
6:00 PM 63 °F 52 °F 58% 30.01 in 12 mi West 8.9 mph - - Rain Light Rain Showers
6:00 PM 64.4 °F 53.6 °F 68% 30.01 in 6.2 mi West 13.4 mph - N/A   Mostly Cloudy
6:30 PM 62.6 °F 55.4 °F 77% 30.01 in 6.2 mi WSW 13.4 mph - N/A Rain Light Rain Showers
7:00 PM 60.8 °F 55.4 °F 82% 30.01 in 6.2 mi WSW 11.2 mph - N/A Rain Light Rain Showers
7:30 PM 60.8 °F 55.4 °F 82% 30.01 in 6.2 mi West 8.9 mph - N/A   Overcast
8:00 PM 60.8 °F 55.4 °F 82% 30.04 in 6.2 mi West 6.7 mph - N/A   Overcast
8:30 PM 60.8 °F 53.6 °F 77% 30.04 in 6.2 mi West 6.7 mph - N/A   Overcast
9:00 PM 59 °F 53 °F 73% 30.02 in 6 mi West 8.9 mph - -  
9:00 PM 59.0 °F 53.6 °F 82% 30.04 in 6.2 mi West 8.9 mph - N/A   Mostly Cloudy
9:30 PM 57.2 °F 51.8 °F 82% 30.04 in 6.2 mi West 6.7 mph - N/A   Mostly Cloudy
10:00 PM 55.4 °F 51.8 °F 88% 30.04 in 6.2 mi West 4.5 mph - N/A   Scattered Clouds
10:30 PM 53.6 °F 50.0 °F 88% 30.04 in 6.2 mi West 2.2 mph - N/A   Scattered Clouds
11:00 PM 53.6 °F 51.8 °F 94% 30.04 in - SW 4.5 mph - N/A   Clear
11:30 PM 53.6 °F 51.8 °F 94% 30.04 in - SW 2.2 mph - N/A   Clear